EW4806 Weather Reports


Display with metric or nautical units.
time (UTC)temp
F
wind
direction
speed
MPH
gust
MPH
rain 1hr
in
rain 24hr
in
rain mn
in
humidity
%
barometer
mb
20260904145146 52 130 0.0 0.0 0.00 0.01 0.00 82 1013.0
20260904143646 52 82 0.0 0.0 0.00 0.01 0.00 82 1012.8
20260904142146 52 114 0.0 0.0 0.00 0.01 0.00 83 1012.6
20260904140645 52 212 0.0 0.0 0.00 0.01 0.00 84 1012.6
20260904135142 52 211 0.0 0.0 0.00 0.01 0.00 84 1012.3
20260904133640 52 214 0.0 0.0 0.00 0.01 0.00 84 1012.3
20260904132137 51 214 0.0 0.0 0.00 0.01 0.00 84 1012.1
20260904130636 51 214 0.0 0.0 0.00 0.01 0.00 83 1012.0
20260904125134 51 116 0.0 0.0 0.00 0.01 0.00 83 1012.0
20260904123631 51 116 0.0 0.0 0.00 0.01 0.00 82 1011.9
20260904122131 52 99 0.0 0.0 0.00 0.01 0.00 82 1011.9
20260904120629 52 97 0.0 0.0 0.00 0.01 0.00 82 1011.8
20260904115127 52 97 0.0 0.0 0.00 0.01 0.00 81 1011.8
20260904113625 52 97 0.0 0.0 0.00 0.01 0.00 81 1011.8
20260904112126 52 98 0.0 0.0 0.00 0.01 0.00 81 1011.7
20260904110623 52 74 0.0 0.0 0.00 0.01 0.00 80 1011.7
20260904105123 52 72 0.0 0.0 0.00 0.01 0.00 79 1011.6
20260904103621 52 72 0.0 0.0 0.00 0.01 0.00 79 1011.6
20260904102122 52 122 0.0 0.0 0.00 0.01 0.00 79 1011.5
20260904100621 52 118 0.0 0.0 0.00 0.01 0.00 80 1011.4
20260904095122 51 125 0.0 0.0 0.00 0.01 0.00 81 1011.4
20260904094327 51 125 0.0 0.0 0.00 0.01 0.00 80 1011.5
20260904092817 51 120 0.0 0.0 0.00 0.01 0.00 80 1011.5
20260904090621 51 120 0.0 0.0 0.00 0.01 0.00 80 1011.6
20260904085121 51 120 0.0 0.0 0.00 0.01 0.00 80 1011.6
20260904085020 51 88 0.0 0.0 0.00 0.01 0.00 80 1011.7
20260904082119 51 118 0.0 0.0 0.00 0.01 0.00 80 1011.9
20260904080619 51 116 0.0 0.0 0.00 0.01 0.00 80 1011.7
20260904075821 51 115 0.0 0.0 0.00 0.01 0.00 80 1011.7
20260904074313 51 115 0.0 0.0 0.00 0.01 0.00 80 1011.6
20260904072113 51 127 0.0 0.0 0.00 0.01 0.00 80 1011.6
20260904070610 52 125 0.0 0.0 0.00 0.01 0.00 79 1011.5
20260904065109 52 125 0.0 0.0 0.00 0.01 0.01 78 1011.5
20260904063611 52 124 0.0 0.0 0.00 0.01 0.01 79 1011.3
20260904062110 52 124 0.0 0.0 0.00 0.01 0.01 79 1011.5
20260904060610 52 123 0.0 0.0 0.00 0.01 0.01 79 1011.3
20260904055110 52 123 0.0 0.0 0.00 0.01 0.01 79 1011.6
20260904053612 52 123 0.0 0.0 0.00 0.02 0.01 78 1011.8
20260904052110 53 123 0.0 0.0 0.00 0.02 0.01 78 1011.7
20260904050608 53 123 0.0 0.0 0.00 0.03 0.01 77 1011.7
20260904045105 53 114 0.0 0.0 0.00 0.03 0.01 77 1011.8
20260904043607 54 209 0.0 0.0 0.00 0.03 0.01 75 1011.9
20260904042106 54 209 0.0 0.0 0.00 0.03 0.01 73 1011.7
20260904040604 55 209 0.0 0.0 0.00 0.04 0.01 71 1011.9
20260904035103 56 208 0.0 0.0 0.00 0.04 0.01 69 1011.8
20260904033604 57 254 0.0 0.0 0.00 0.05 0.01 67 1011.6
20260904032104 58 255 0.0 0.0 0.00 0.06 0.01 64 1011.3
20260904031300 58 255 0.0 0.0 0.00 0.07 0.01 63 1011.3
20260904025103 58 191 0.0 1.0 0.00 0.08 0.01 63 1011.2
20260904023602 59 189 0.0 2.0 0.00 0.09 0.01 61 1011.4
20260904022101 60 189 0.0 4.0 0.00 0.10 0.01 59 1011.5
20260904020601 60 290 0.0 2.0 0.00 0.12 0.01 58 1011.5
20260904015102 60 227 0.0 10.0 0.00 0.13 0.01 58 1011.6
20260904014247 61 280 1.0 10.0 0.00 0.15 0.01 54 1011.5
20260904012101 62 271 0.0 4.0 0.00 0.17 0.01 51 1011.3
20260904010601 63 231 1.0 9.0 0.00 0.19 0.01 49 1011.2
20260904005101 64 245 1.0 9.0 0.00 0.21 0.01 47 1011.1
20260904003601 65 265 2.0 10.0 0.00 0.23 0.01 45 1010.8
20260904002101 65 218 1.0 11.0 0.00 0.25 0.01 45 1010.8
20260904000558 65 283 1.0 7.0 0.00 0.27 0.01 44 1010.8
20260903235101 65 191 1.0 5.0 0.00 0.29 0.01 44 1010.9
20260903233557 65 197 1.0 11.0 0.00 0.30 0.01 46 1011.0
20260903232055 64 249 1.0 4.0 0.00 0.32 0.01 48 1011.1
20260903230552 64 221 1.0 7.0 0.00 0.34 0.01 48 1011.3
20260903225050 65 187 1.0 4.0 0.00 0.36 0.01 47 1011.4
20260903223549 63 166 1.0 9.0 0.01 0.37 0.01 50 1011.4
20260903222046 62 197 1.0 5.0 0.01 0.40 0.01 58 1011.6
20260903220543 61 177 1.0 6.0 0.01 0.42 0.01 60 1011.7
20260903215736 63 286 1.0 5.0 0.01 0.44 0.01 53 1011.6
20260903213543 64 291 0.0 2.0 0.00 0.45 0.00 52 1011.4
20260903212042 64 243 0.0 3.0 0.00 0.47 0.00 52 1011.5
20260903210543 63 141 0.0 1.0 0.00 0.49 0.00 57 1011.4
20260903205042 61 113 0.0 2.0 0.00 0.51 0.00 63 1011.5
20260903203544 59 112 0.0 1.0 0.00 0.54 0.00 72 1011.8
20260903203435 59 305 0.0 0.0 0.00 0.57 0.00 75 1011.9
20260903200541 58 305 0.0 1.0 0.00 0.59 0.00 75 1012.0
20260903195039 58 278 0.0 1.0 0.00 0.61 0.00 78 1012.1
20260903194225 58 278 0.0 1.0 0.00 0.62 0.00 79 1012.2
20260903192035 57 278 0.0 1.0 0.00 0.63 0.00 81 1012.3
20260903191237 57 287 0.0 0.0 0.00 0.64 0.00 82 1012.5
20260903185729 57 308 0.0 0.0 0.00 0.65 0.00 83 1012.5
20260903183532 56 280 0.0 0.0 0.00 0.66 0.00 83 1012.4
20260903182033 56 280 0.0 0.0 0.00 0.66 0.00 83 1012.5
20260903180533 56 270 0.0 1.0 0.00 0.67 0.00 83 1012.4
20260903175731 55 270 0.0 0.0 0.00 0.69 0.00 84 1012.4
20260903173532 55 270 0.0 0.0 0.00 0.69 0.00 85 1012.4
20260903172726 55 270 0.0 2.0 0.00 0.69 0.00 85 1012.4
20260903170531 55 288 0.0 1.0 0.00 0.70 0.00 85 1012.4
20260903165030 55 290 0.0 1.0 0.00 0.70 0.00 85 1012.5
20260903163530 55 289 0.0 0.0 0.00 0.70 0.00 86 1012.7
20260903162031 54 284 0.0 0.0 0.00 0.70 0.00 87 1012.8
20260903160530 54 100 0.0 0.0 0.00 0.70 0.00 87 1013.0
20260903155030 53 79 0.0 0.0 0.00 0.70 0.00 87 1013.2
20260903153530 53 287 0.0 0.0 0.00 0.70 0.00 87 1013.4
20260903152027 53 359 0.0 0.0 0.00 0.70 0.00 87 1013.4
20260903150529 52 283 0.0 0.0 0.00 0.70 0.00 87 1013.3